Wind_Speed
52 50 49 47 45 45 46 47 47 47 49 50 50 51 54 58 60 62 65 68 69 68 69 70 69 68 69
47 46 46 44 45 44 44 44 45 44 43 45 46 47 48 51 54 56 59 62 65 67 70 70 71 72 69
45 44 44 43 43 43 43 43 41 42 42 42 42 42 43 44 46 47 48 50 54 56 60 64 66 68 71
43 43 43 42 43 45 43 41 41 39 40 40 39 41 41 41 42 42 44 44 44 45 48 52 57 61 62
43 42 43 42 43 43 44 41 38 37 39 39 40 41 41 40 40 40 41 43 44 45 46 46 48 53 56
43 44 43 43 43 42 42 41 44 37 37 41 39 41 41 41 41 41 42 43 44 44 45 45 44 46 47
45 46 47 44 43 45 44 44 44 41 39 42 40 42 41 42 42 42 44 44 45 45 45 45 43 40 47
44 45 45 45 46 46 45 45 44 42 37 44 41 44 42 41 41 43 45 45 45 46 46 45 45 45 47
44 44 45 45 40 37 41 38 41 41 40 44 45 45 45 45 44 45 45 45 45 45 45 46 46 48 51
42 42 42 43 42 41 42 43 45 48 43 47 47 47 48 47 46 46 47 47 47 46 46 48 49 51 53
40 39 38 38 38 37 37 38 41 44 43 41 43 39 40 44 49 50 52 52 52 50 48 50 50 50 53
36 36 34 31 32 34 38 36 35 36 35 35 42 45 50 54 56 54 54 53 52 51 49 47 47 47 47
38 37 34 37 36 39 42 45 46 48 50 50 50 50 53 56 58 56 54 53 51 50 49 48 48 47 47
38 37 38 42 43 45 47 47 49 50 48 48 48 49 50 51 51 53 52 53 49 49 49 49 48 47 47
35 37 39 39 40 39 41 43 47 49 47 44 42 44 46 47 50 49 50 50 47 48 48 50 49 47 47
32 33 34 36 38 40 41 44 46 45 45 43 43 44 46 47 46 48 48 48 48 48 49 51 53 49 49
38 41 40 41 40 43 44 44 44 44 44 43 43 44 48 51 44 42 48 50 51 52 50 51 53 52 49
Wind_Direction
290 289 288 286 284 281 280 278 275 274 274 274 271 269 268 267 266 263 261 262 263 263 264 263 258 255 252
286 286 287 287 286 285 282 281 281 280 276 273 273 273 270 270 270 270 269 265 263 264 263 262 262 261 256
285 286 287 288 287 286 285 283 281 280 277 275 273 273 270 270 271 272 274 274 271 267 266 265 263 261 260
283 285 287 288 288 289 286 283 283 280 277 276 271 268 267 266 269 271 274 276 277 276 273 270 267 264 262
281 282 284 285 285 286 287 290 283 281 277 274 272 270 269 267 267 268 273 276 278 279 279 277 273 270 267
283 283 281 282 285 286 288 287 283 282 282 276 271 270 269 270 270 271 272 275 277 279 280 279 277 273 269
278 279 283 286 287 286 285 284 286 285 278 276 272 270 271 271 272 275 278 279 280 280 279 278 276 272 269
273 274 274 276 275 278 280 280 279 280 279 276 275 275 275 272 272 273 276 279 282 283 280 275 271 271 271
273 272 271 269 269 274 276 279 278 275 272 274 278 280 280 279 278 276 277 279 280 279 277 276 272 270 270
275 274 273 271 270 268 270 269 269 270 272 272 275 276 277 277 277 279 281 279 277 275 272 273 272 271 268
276 273 269 266 264 263 264 266 270 272 275 274 276 280 276 270 275 280 280 281 280 279 274 273 273 271 271
273 272 273 276 277 275 273 270 267 270 272 268 270 270 272 277 278 281 281 282 283 282 280 276 273 272 269
259 259 257 255 257 261 267 271 272 273 275 276 278 279 279 279 282 284 285 284 285 285 285 282 279 276 272
260 260 262 262 264 267 271 272 274 274 273 276 277 277 278 277 279 281 282 285 286 284 285 283 279 277 275
259 258 260 267 270 273 274 276 278 281 281 280 278 277 276 277 278 280 283 284 286 287 286 283 278 274 273
258 262 264 266 269 272 278 281 282 281 281 282 282 280 278 276 277 282 284 285 285 284 282 281 277 275 275
264 268 271 275 278 282 284 283 282 283 283 284 283 281 282 283 285 285 286 286 288 287 287 284 282 279 282
Height
3007 3007 3007 3007 3009 3009 3008 3007 3007 3008 3006 3007 3006 3007 3007 3007 3008 3010 3010 3011 3012 3013 3015 3019 3024 3028 3033
2996 2996 2994 2994 2993 2993 2994 2994 2993 2994 2994 2992 2993 2993 2993 2993 2992 2993 2994 2994 2996 2996 2997 3000 3001 3006 3012
2982 2983 2982 2981 2980 2980 2980 2980 2981 2980 2980 2981 2981 2981 2980 2979 2979 2979 2979 2979 2979 2979 2980 2981 2983 2985 2989
2970 2970 2970 2970 2967 2966 2966 2967 2967 2968 2968 2967 2968 2969 2969 2969 2968 2967 2966 2965 2965 2965 2965 2965 2966 2967 2969
2959 2959 2959 2957 2955 2954 2952 2953 2955 2955 2954 2957 2956 2955 2956 2957 2957 2957 2956 2954 2953 2951 2950 2950 2950 2950 2951
2947 2946 2946 2944 2944 2943 2942 2941 2939 2946 2942 2941 2943 2941 2943 2943 2944 2944 2944 2943 2941 2939 2937 2935 2935 2934 2934
2935 2934 2933 2934 2933 2931 2931 2929 2928 2930 2929 2927 2929 2927 2930 2930 2931 2930 2929 2927 2927 2926 2924 2922 2921 2919 2918
2924 2923 2923 2923 2921 2921 2920 2918 2917 2917 2919 2910 2915 2914 2916 2916 2917 2917 2915 2914 2912 2910 2908 2907 2905 2903 2901
2911 2910 2910 2910 2911 2910 2907 2907 2904 2904 2905 2902 2902 2900 2900 2899 2900 2900 2901 2900 2898 2896 2893 2892 2891 2889 2886
2897 2896 2896 2896 2897 2897 2896 2894 2893 2891 2896 2893 2890 2889 2884 2886 2884 2885 2884 2884 2883 2882 2880 2878 2876 2874 2871
2882 2882 2883 2883 2884 2885 2884 2883 2880 2878 2883 2881 2877 2877 2874 2871 2871 2870 2869 2867 2865 2864 2865 2863 2861 2860 2856
2870 2870 2871 2872 2873 2872 2872 2871 2870 2869 2869 2869 2864 2864 2861 2856 2852 2854 2853 2851 2849 2847 2845 2844 2843 2843 2843
2859 2859 2860 2861 2861 2860 2861 2859 2857 2856 2855 2855 2852 2850 2847 2841 2837 2836 2835 2834 2834 2831 2830 2827 2826 2826 2824
2848 2849 2850 2848 2848 2849 2848 2847 2843 2841 2843 2842 2839 2836 2831 2828 2825 2821 2822 2818 2820 2817 2814 2811 2810 2809 2808
2838 2837 2837 2838 2838 2838 2836 2834 2830 2827 2826 2827 2826 2822 2818 2815 2811 2810 2807 2805 2805 2802 2799 2794 2793 2793 2792
2828 2828 2828 2827 2827 2826 2824 2821 2817 2815 2813 2812 2810 2807 2804 2801 2801 2796 2795 2791 2789 2786 2783 2777 2773 2776 2776
2818 2818 2817 2816 2815 2813 2811 2808 2804 2802 2800 2799 2796 2794 2788 2780 2786 2788 2780 2776 2773 2769 2767 2763 2756 2757 2759